Location: Sungai Bunut
(2.6333°N, 113.7333°E)
Time: 17:59:07
(UTC+00:00)

Tiros 1 despin weight - Pass Details

Date: 11 December 2023
Orbit: 581 x 624 km, 48.2° (Epoch: 03 March)

Event Time Altitude Azimuth Distance (km) Brightness Sun altitude
Rises 05:16:12 0° 224° (SW) 2,881 ? 60.7°
Reaches altitude 10° 05:18:32 10° 227° (SW) 1,968 ? 60.5°
Maximum altitude 05:23:01 64° 309° (NW) 669 ? 59.9°
Drops below altitude 10° 05:27:25 10° 31° (NNE) 1,931 ? 59.3°
Sets 05:29:42 0° 34° (NE) 2,823 ? 59.0°
